Location: C�an Torras
(41.5052°N, 1.9280°E)
Time: 21:54:06
(UTC+00:00)

Cosmos 1315 Rocket - Pass Details

Date: 20 January 2021
Orbit: 530 x 567 km, 81.2° (Epoch: 02 March)

Event Time Altitude Azimuth Distance (km) Brightness Sun altitude
Rises 17:51:40 0° 344° (NNW) 2,701 6.3 -10.9°
Reaches altitude 10° 17:53:51 10° 340° (NNW) 1,810 5.5 -11.3°
Maximum altitude 17:57:43 50° 264° (W) 696 3.8 -12.0°
Drops below altitude 10° 18:01:35 10° 189° (S) 1,817 5.8 -12.7°
Sets 18:03:48 0° 184° (S) 2,712 6.6 -13.1°
